New Bern, NC

3:27 AM EDT on July 26, 2017 (GMT -0400)
Craven County Regional

Weather History for KEWN - March, 2013

Change the Weather History Date:

Monday, March 11, 2013

  Actual Average Record
Temperature  
Mean Temperature 57 °F 52 °F  
Max Temperature 73 °F 63 °F 86 °F (2015)
Min Temperature 40 °F 41 °F 26 °F (2001)
Degree Days  
Heating Degree Days 8 13  
Month to date heating degree days 195 160  
Since 1 July heating degree days 2121 2306  
Cooling Degree Days 0 0  
Month to date cooling degree days 0 0  
Year to date cooling degree days 7 3  
Growing Degree Days 6 (Base 50)    
Moisture  
Dew Point 47 °F    
Average Humidity 70    
Maximum Humidity 96    
Minimum Humidity 44    
Precipitation  
Precipitation 0.00 in 0.15 in 0.72 in (1956)
Month to date precipitation 0.08 1.60  
Year to date precipitation 6.22 9.28  
Snow  
Snow 0.00 in - - ()
Month to date snowfall 0.0  
Since 1 July snowfall T  
Snow Depth 0.00 in    
Sea Level Pressure  
Sea Level Pressure 30.16 in    
Wind  
Wind Speed 7 mph (SSE)    
Max Wind Speed 17 mph    
Max Gust Speed 23 mph    
Visibility 10 miles    
Events      
T = Trace of Precipitation, MM = Missing Value Source: NWS Daily Summary

Daily Weather History Graph

Daily Weather History Graph

Search for Another Location

Airport or City:

Trip Planner

Search our weather history database for the weather conditions in past years. The results will help you decide how hot, cold, wet, or windy it might be!

Date:

Astronomy

Mar. 11, 2013 Rise Set
Actual Time 7:24 AM EDT 7:12 PM EDT
Civil Twilight 6:58 AM EDT 7:37 PM EDT
Nautical Twilight 6:29 AM EDT 8:07 PM EDT
Astronomical Twilight 5:59 AM EDT 8:36 PM EDT
Moon 6:57 AM EDT (3/11) 7:20 PM EDT (3/11)
Length of Visible Light 12h 39m
Length of Day
11h 48m
Waning Crescent, 0% of the Moon is Illuminated
Mar 11
Waning Crescent
Mar 11
New
Mar 19
First Quarter
Mar 27
Full
Apr 3
Last Quarter

Hourly Weather History & Observations

Time (EDT) Temp. Windchill Dew Point Humidity Pressure Visibility Wind Dir Wind Speed Gust Speed Precip Events Conditions
12:54 AM 46.9 °F - 44.1 °F 90% 30.27 in 10.0 mi Calm Calm - N/A   Clear
1:54 AM 44.1 °F - 42.1 °F 93% 30.27 in 10.0 mi Calm Calm - N/A   Clear
2:54 AM 44.1 °F - 41.0 °F 89% 30.26 in 10.0 mi Calm Calm - N/A   Clear
3:47 AM 42.8 °F - 41.0 °F 93% 30.24 in 10.0 mi Calm Calm - N/A   Mostly Cloudy
3:54 AM 42.1 °F - 39.9 °F 92% 30.23 in 10.0 mi Calm Calm - N/A   Scattered Clouds
4:54 AM 42.1 °F - 39.9 °F 92% 30.22 in 10.0 mi Calm Calm - N/A   Partly Cloudy
5:54 AM 43.0 °F 41.3 °F 41.0 °F 93% 30.21 in 10.0 mi East 3.5 mph - N/A   Clear
6:54 AM 46.9 °F - 44.1 °F 90% 30.21 in 10.0 mi Calm Calm - N/A   Clear
7:54 AM 46.0 °F - 43.0 °F 89% 30.22 in 10.0 mi Calm Calm - N/A   Clear
8:54 AM 52.0 °F - 48.0 °F 86% 30.22 in 10.0 mi ESE 4.6 mph - N/A   Clear
9:54 AM 55.9 °F - 48.9 °F 77% 30.21 in 10.0 mi SE 4.6 mph - N/A   Clear
10:54 AM 63.0 °F - 50.0 °F 63% 30.21 in 10.0 mi SE 6.9 mph - N/A   Mostly Cloudy
11:54 AM 66.9 °F - 50.0 °F 54% 30.16 in 10.0 mi ESE 10.4 mph - N/A   Mostly Cloudy
12:54 PM 71.1 °F - 48.9 °F 45% 30.16 in 10.0 mi South 11.5 mph 16.1 mph N/A   Overcast
1:54 PM 70.0 °F - 48.9 °F 47% 30.15 in 10.0 mi SSW 15.0 mph 19.6 mph N/A   Overcast
2:54 PM 70.0 °F - 48.0 °F 46% 30.13 in 10.0 mi South 11.5 mph 17.3 mph N/A   Mostly Cloudy
3:54 PM 70.0 °F - 46.9 °F 44% 30.09 in 10.0 mi SSE 11.5 mph 18.4 mph N/A   Mostly Cloudy
4:54 PM 70.0 °F - 48.0 °F 46% 30.09 in 10.0 mi South 11.5 mph - N/A   Mostly Cloudy
5:54 PM 69.1 °F - 48.0 °F 47% 30.07 in 10.0 mi South 12.7 mph - N/A   Partly Cloudy
6:54 PM 66.0 °F - 48.9 °F 54% 30.09 in 10.0 mi SSE 11.5 mph - N/A   Mostly Cloudy
7:54 PM 64.0 °F - 50.0 °F 60% 30.08 in 10.0 mi SE 5.8 mph - N/A   Overcast
8:54 PM 63.0 °F - 51.1 °F 65% 30.05 in 10.0 mi SSE 8.1 mph - N/A   Mostly Cloudy
9:54 PM 62.1 °F - 52.0 °F 70% 30.06 in 10.0 mi SSE 5.8 mph - N/A   Overcast
10:54 PM 64.0 °F - 54.0 °F 70% 30.02 in 10.0 mi South 9.2 mph - N/A   Partly Cloudy
11:54 PM 64.0 °F - 54.0 °F 70% 30.01 in 10.0 mi SSE 9.2 mph - N/A   Mostly Cloudy